1487728800.1,28863,10.81,72412.0,-12.57,-13.61,-13.61,0,*66
1487728801.35,28864,10.81,72410.5,-12.59,-13.61,-13.65,0,*6B
1487728802.62,28865,10.81,72414.5,-12.59,-13.61,-13.61,0,*6E
1487728803.85,28866,10.81,72388.0,-12.57,-13.47,-13.47,0,*63
1487728805.07,28867,10.81,72392.3,-12.59,-13.47,-13.51,0,*6B
1487728806.28,28868,10.81,72386.3,-12.59,-13.47,-13.47,0,*63
1487728807.52,28869,10.81,72384.8,-12.57,-13.43,-13.43,0,*6C
1487728808.73,28870,10.81,72382.0,-12.59,-13.43,-13.47,0,*6E
1487728809.95,28871,10.81,72384.0,-12.59,-13.43,-13.43,0,*6B
1487728811.21,28872,10.81,72398.8,-12.57,-13.43,-13.37,0,*65
1487728812.48,28873,10.81,72398.0,-12.57,-13.43,-13.37,0,*64
1487728813.71,28874,10.81,72408.5,-12.57,-13.43,-13.43,0,*60
1487728814.95,28875,10.81,72396.0,-12.57,-13.43,-13.43,0,*61
1487728816.17,28876,10.81,72376.5,-12.59,-13.43,-13.43,0,*6C
1487728817.46,28877,10.81,72374.5,-12.57,-13.37,-13.37,0,*63
1487728818.7,28878,10.81,72384.0,-12.57,-13.43,-13.43,0,*6C
1487728819.92,28879,10.81,72390.3,-12.59,-13.43,-13.43,0,*63
1487728821.13,28880,10.81,72388.0,-12.59,-13.47,-13.47,0,*65
1487728822.34,28881,10.81,72384.8,-12.59,-13.43,-13.43,0,*64
1487728823.58,28882,10.81,72384.0,-12.57,-13.43,-13.43,0,*69
1487728824.82,28883,10.81,72376.5,-12.57,-13.43,-13.43,0,*68
1487728826.04,28884,10.81,72382.8,-12.59,-13.43,-13.43,0,*61
1487728827.3,28885,10.81,72370.8,-12.57,-13.43,-13.37,0,*6D
1487728828.54,28886,10.81,72358.5,-12.57,-13.43,-13.43,0,*6D
1487728829.81,28887,10.81,72364.0,-12.57,-13.23,-13.37,0,*69
1487728831.05,28888,10.81,72376.3,-12.59,-13.33,-13.43,0,*6A
1487728832.31,28889,10.81,72368.3,-12.57,-13.29,-13.23,0,*68
1487728833.56,28890,10.81,72350.5,-12.57,-13.23,-13.23,0,*6A
1487728834.8,28891,10.81,72360.0,-12.57,-13.23,-13.23,0,*6B
1487728836.1,28892,10.81,72370.5,-12.57,-13.29,-13.37,0,*67
1487728837.39,28893,10.81,72364.0,-12.57,-13.29,-13.29,0,*69
1487728838.66,28894,10.81,72374.8,-12.55,-13.29,-13.29,0,*6C
1487728839.92,28895,10.81,72382.5,-12.55,-13.29,-13.37,0,*62
1487728841.19,28896,10.81,72394.5,-12.57,-13.37,-13.43,0,*6F
1487728842.48,28897,10.81,72384.0,-12.57,-13.37,-13.37,0,*6D
1487728843.72,28898,10.81,72392.5,-12.57,-13.43,-13.43,0,*62
1487728844.96,28899,10.81,72398.3,-12.55,-13.37,-13.43,0,*62
1487728846.17,28900,10.81,72388.0,-12.55,-13.43,-13.43,0,*60
1487728847.44,28901,10.81,72394.3,-12.53,-13.43,-13.37,0,*64
1487728848.68,28902,10.81,72390.3,-12.55,-13.37,-13.43,0,*61
1487728849.9,28903,10.81,72382.8,-12.55,-13.43,-13.43,0,*63
1487728851.14,28904,10.81,72376.3,-12.55,-13.37,-13.43,0,*67
1487728852.4,28905,10.81,72386.5,-12.57,-13.43,-13.37,0,*64
1487728853.67,28906,10.81,72390.0,-12.57,-13.43,-13.37,0,*67
1487728854.88,28907,10.81,72396.5,-12.55,-13.43,-13.43,0,*67
1487728856.1,28908,10.81,72396.8,-12.55,-13.43,-13.43,0,*68
1487728857.31,28909,10.81,72398.0,-12.55,-13.43,-13.43,0,*69
1487728858.58,28910,10.81,72388.0,-12.55,-13.37,-13.37,0,*61
1487728859.85,28911,10.81,72382.3,-12.55,-13.37,-13.37,0,*60
1487728861.12,28912,10.81,72358.5,-12.55,-13.29,-13.37,0,*6C
1487728862.36,28913,10.81,72362.0,-12.55,-13.29,-13.43,0,*6E
1487728863.6,28914,10.81,72354.8,-12.55,-13.37,-13.43,0,*66
1487728864.84,28915,10.81,72368.0,-12.55,-13.43,-13.37,0,*67
1487728866.05,28916,10.81,72370.3,-12.55,-13.43,-13.43,0,*67
1487728867.27,28917,10.81,72378.3,-12.55,-13.43,-13.43,0,*66
1487728868.48,28918,10.81,72388.8,-12.55,-13.43,-13.43,0,*69
1487728869.69,28919,10.81,72402.8,-12.55,-13.43,-13.47,0,*6C
1487728870.9,28920,10.81,72408.5,-12.55,-13.47,-13.47,0,*62
1487728872.11,28921,10.81,72384.8,-12.55,-13.47,-13.47,0,*63
1487728873.32,28922,10.81,72308.5,-12.55,-13.43,-13.47,0,*64
1487728874.54,28923,10.81,72340.8,-12.55,-13.43,-13.43,0,*61
1487728875.78,28924,10.81,72352.3,-12.57,-13.43,-13.43,0,*64
1487728877.01,28925,10.81,72388.0,-12.57,-13.43,-13.47,0,*61
1487728878.24,28926,10.81,72394.8,-12.57,-13.47,-13.47,0,*66
1487728879.47,28927,10.81,72392.0,-12.57,-13.47,-13.47,0,*67
1487728880.71,28928,10.81,72376.5,-12.57,-13.55,-13.47,0,*6B
1487728881.94,28929,10.81,72388.3,-12.57,-13.47,-13.47,0,*69
1487728883.17,28930,10.81,72414.0,-12.57,-13.47,-13.47,0,*61
1487728884.4,28931,10.81,72362.5,-12.57,-13.47,-13.47,0,*60
1487728885.63,28932,10.81,72366.5,-12.57,-13.47,-13.47,0,*63
1487728886.84,28933,10.81,72380.3,-12.55,-13.47,-13.47,0,*60
1487728888.05,28934,10.81,72386.5,-12.55,-13.43,-13.43,0,*67
1487728889.29,28935,10.81,72390.3,-12.57,-13.43,-13.47,0,*60
1487728890.52,28936,10.81,72406.8,-12.57,-13.43,-13.47,0,*63
1487728891.75,28937,10.81,72408.3,-12.57,-13.47,-13.47,0,*66
1487728892.99,28938,10.81,72422.0,-12.57,-13.43,-13.47,0,*6D
1487728894.2,28939,10.81,72400.5,-12.55,-13.43,-13.47,0,*6E
1487728895.46,28940,10.81,72334.0,-12.57,-13.37,-13.43,0,*65
1487728896.7,28941,10.81,72350.5,-12.57,-13.43,-13.43,0,*67
1487728897.94,28942,10.81,72330.5,-12.57,-13.43,-13.43,0,*64
1487728899.18,28943,10.81,72364.3,-12.57,-13.43,-13.43,0,*65
1487728900.39,28944,10.81,72358.0,-12.59,-13.47,-13.47,0,*6C
1487728901.63,28945,10.81,72378.3,-12.57,-13.43,-13.43,0,*63
1487728902.86,28946,10.81,72326.5,-12.57,-13.47,-13.55,0,*63
1487728904.09,28947,10.81,72346.3,-12.57,-13.47,-13.47,0,*61
1487728905.32,28948,10.81,72324.8,-12.57,-13.47,-13.47,0,*6E
1487728906.56,28949,10.81,72342.0,-12.57,-13.43,-13.47,0,*6B
1487728907.79,28950,10.81,72388.3,-12.57,-13.47,-13.47,0,*67
1487728909.02,28951,10.81,72390.0,-12.57,-13.47,-13.47,0,*66
1487728910.26,28952,10.81,72384.8,-12.57,-13.43,-13.43,0,*65
1487728911.52,28953,10.81,72406.0,-12.57,-13.37,-13.43,0,*67
1487728912.79,28954,10.81,72390.8,-12.57,-13.29,-13.43,0,*6F
1487728914.02,28955,10.81,72408.5,-12.57,-13.43,-13.43,0,*62
1487728915.29,28956,10.81,72384.8,-12.57,-13.37,-13.43,0,*62
1487728916.53,28957,10.81,72346.3,-12.57,-13.43,-13.43,0,*60
1487728917.76,28958,10.81,72378.8,-12.57,-13.43,-13.43,0,*6F
1487728918.98,28959,10.81,72368.5,-12.55,-13.43,-13.43,0,*6C
1487728920.22,28960,10.81,72350.0,-12.57,-13.43,-13.43,0,*64
1487728921.45,28961,10.81,72338.8,-12.57,-13.43,-13.43,0,*65
1487728922.69,28962,10.81,72352.5,-12.57,-13.43,-13.43,0,*66
1487728923.91,28963,10.81,72370.8,-12.59,-13.43,-13.43,0,*69
1487728925.14,28964,10.81,72370.8,-12.57,-13.47,-13.47,0,*60
1487728926.37,28965,10.81,72318.5,-12.59,-13.51,-13.55,0,*6B
1487728927.6,28966,10.81,72342.5,-12.57,-13.47,-13.55,0,*61
1487728928.84,28967,10.81,72324.8,-12.57,-13.55,-13.47,0,*60
1487728930.05,28968,10.81,72324.5,-12.55,-13.47,-13.47,0,*6E
1487728931.28,28969,10.81,72332.0,-12.57,-13.43,-13.47,0,*69
1487728932.52,28970,10.81,72340.8,-12.57,-13.43,-13.43,0,*65
1487728933.76,28971,10.81,72344.8,-12.57,-13.43,-13.43,0,*64
1487728934.97,28972,10.81,72358.0,-12.59,-13.47,-13.47,0,*69
1487728936.26,28973,10.81,72354.5,-12.57,-13.37,-13.37,0,*66
1487728937.55,28974,10.81,72326.5,-12.57,-13.37,-13.29,0,*6E
1487728938.81,28975,10.81,72298.3,-12.57,-13.43,-13.37,0,*63
1487728940.03,28976,10.81,72324.8,-12.55,-13.43,-13.43,0,*61
1487728941.24,28977,10.81,72334.5,-12.55,-13.43,-13.43,0,*60
1487728942.49,28978,10.81,72330.8,-12.53,-13.43,-13.43,0,*69
1487728943.72,28979,10.81,72364.0,-12.57,-13.43,-13.43,0,*6C
1487728944.96,28980,10.81,72340.8,-12.57,-13.43,-13.43,0,*6A
1487728946.2,28981,10.81,72342.8,-12.57,-13.43,-13.43,0,*6B
1487728947.44,28982,10.81,72362.8,-12.57,-13.43,-13.43,0,*68
1487728948.67,28983,10.81,72348.0,-12.57,-13.43,-13.43,0,*69
1487728949.91,28984,10.81,72348.0,-12.57,-13.43,-13.47,0,*6A
1487728951.14,28985,10.81,72348.3,-12.57,-13.43,-13.43,0,*6F
1487728952.38,28986,10.81,72340.5,-12.57,-13.43,-13.43,0,*6C
1487728953.6,28987,10.81,72340.3,-12.55,-13.43,-13.43,0,*6F
1487728954.83,28988,10.81,72344.3,-12.57,-13.43,-13.43,0,*62
1487728956.07,28989,10.81,72360.3,-12.57,-13.43,-13.47,0,*67
1487728957.3,28990,10.81,72356.0,-12.57,-13.47,-13.47,0,*6B
1487728958.53,28991,10.81,72344.8,-12.57,-13.47,-13.47,0,*6A
1487728959.76,28992,10.81,72352.5,-12.57,-13.43,-13.47,0,*6D
1487728961.0,28993,10.81,72372.8,-12.57,-13.47,-13.47,0,*68
1487728962.23,28994,10.81,72378.8,-12.57,-13.47,-13.55,0,*6C
1487728963.47,28995,10.81,72388.5,-12.57,-13.47,-13.47,0,*6E
1487728964.7,28996,10.81,72378.8,-12.57,-13.47,-13.47,0,*6D
1487728965.93,28997,10.81,72378.3,-12.57,-13.47,-13.43,0,*68
1487728967.22,28998,10.81,72372.0,-12.57,-13.37,-13.37,0,*63
1487728968.51,28999,10.81,72372.5,-12.57,-13.37,-13.37,0,*62
1487728969.8,29000,10.81,72368.3,-12.57,-13.37,-13.37,0,*6A
1487728971.09,29001,10.81,72380.3,-12.57,-13.37,-13.37,0,*6B
1487728972.39,29002,10.81,72374.8,-12.57,-13.29,-13.33,0,*63
1487728973.66,29003,10.81,72366.5,-12.57,-13.23,-13.29,0,*63
1487728974.93,29004,10.81,72382.5,-12.57,-13.29,-13.23,0,*64
1487728976.22,29005,10.81,72356.8,-12.57,-13.37,-13.29,0,*60
1487728977.51,29006,10.81,72358.5,-12.57,-13.29,-13.29,0,*6C
1487728978.8,29007,10.81,72358.5,-12.57,-13.29,-13.29,0,*6D
1487728980.09,29008,10.81,72374.0,-12.57,-13.29,-13.29,0,*62
1487728981.38,29009,10.81,72362.5,-12.57,-13.37,-13.37,0,*63
1487728982.62,29010,10.81,72374.0,-12.55,-13.37,-13.43,0,*6A
1487728983.86,29011,10.81,72392.8,-12.55,-13.37,-13.43,0,*6B
1487728985.13,29012,10.81,72400.8,-12.55,-13.37,-13.37,0,*6B
1487728986.37,29013,10.81,72416.0,-12.55,-13.43,-13.37,0,*69
1487728987.64,29014,10.81,72404.5,-12.57,-13.43,-13.37,0,*6C
1487728988.9,29015,10.81,72402.0,-12.57,-13.37,-13.43,0,*6D
1487728990.17,29016,10.81,72398.8,-12.55,-13.37,-13.37,0,*6F
1487728991.44,29017,10.81,72392.3,-12.53,-13.37,-13.43,0,*6B
1487728992.65,29018,10.81,72388.8,-12.55,-13.43,-13.43,0,*61
1487728993.89,29019,10.81,72396.5,-12.55,-13.43,-13.37,0,*63
1487728995.11,29020,10.81,72378.8,-12.55,-13.43,-13.43,0,*6A
1487728996.37,29021,10.81,72388.3,-12.57,-13.43,-13.37,0,*6A
1487728997.59,29022,10.81,72394.3,-12.55,-13.43,-13.43,0,*68
1487728998.83,29023,10.81,72382.8,-12.55,-13.37,-13.43,0,*6A
1487729000.1,29024,10.81,72390.0,-12.55,-13.37,-13.37,0,*6E
1487729001.36,29025,10.81,72388.5,-12.55,-13.29,-13.37,0,*60
1487729002.63,29026,10.81,72392.3,-12.55,-13.29,-13.37,0,*63
1487729003.88,29027,10.81,72388.0,-12.55,-13.23,-13.29,0,*67
1487729005.15,29028,10.81,72368.5,-12.55,-13.29,-13.29,0,*62
1487729006.39,29029,10.81,72374.0,-12.55,-13.29,-13.23,0,*69
1487729007.66,29030,10.81,72386.3,-12.55,-13.29,-13.29,0,*6B
1487729008.93,29031,10.81,72362.3,-12.53,-13.29,-13.43,0,*60
1487729010.2,29032,10.81,72376.0,-12.55,-13.37,-13.29,0,*66
1487729011.46,29033,10.81,72364.0,-12.53,-13.37,-13.43,0,*6D
1487729012.71,29034,10.81,72362.8,-12.55,-13.43,-13.37,0,*6C
1487729013.95,29035,10.81,72336.0,-12.55,-13.37,-13.43,0,*6D
1487729015.19,29036,10.81,72344.0,-12.53,-13.43,-13.43,0,*6B
1487729016.43,29037,10.81,72334.5,-12.55,-13.43,-13.37,0,*6F
1487729017.67,29038,10.81,72352.0,-12.55,-13.37,-13.43,0,*60
1487729018.91,29039,10.81,72336.0,-12.55,-13.43,-13.37,0,*61
1487729020.15,29040,10.81,72334.3,-12.55,-13.37,-13.43,0,*6F
1487729021.39,29041,10.81,72332.3,-12.55,-13.43,-13.37,0,*6E
1487729022.64,29042,10.81,72350.3,-12.53,-13.43,-13.43,0,*68
1487729023.85,29043,10.81,72364.0,-12.55,-13.43,-13.43,0,*6F
1487729025.06,29044,10.81,72364.8,-12.55,-13.47,-13.43,0,*6C
1487729026.27,29045,10.81,72372.3,-12.55,-13.47,-13.47,0,*69
1487729027.48,29046,10.81,72358.0,-12.55,-13.47,-13.47,0,*6A
1487729028.69,29047,10.81,72362.5,-12.55,-13.47,-13.47,0,*6B
1487729029.89,29048,10.81,72362.3,-12.55,-13.47,-13.47,0,*64
1487729031.1,29049,10.81,72336.0,-12.55,-13.47,-13.47,0,*65
1487729032.32,29050,10.81,72346.3,-12.55,-13.47,-13.55,0,*6E
1487729033.54,29051,10.81,72350.3,-12.55,-13.55,-13.55,0,*6C
1487729034.78,29052,10.81,72356.8,-12.55,-13.55,-13.61,0,*68
1487729036.03,29053,10.81,72370.5,-12.55,-13.55,-13.61,0,*69
1487729037.3,29054,10.81,72372.0,-12.57,-13.55,-13.61,0,*6C
1487729038.57,29055,10.81,72370.3,-12.57,-13.55,-13.61,0,*6D
1487729039.84,29056,10.81,72370.5,-12.55,-13.61,-13.61,0,*6B
1487729041.13,29057,10.81,72360.5,-12.57,-13.61,-13.61,0,*68
1487729042.42,29058,10.81,72344.8,-12.57,-13.61,-13.61,0,*67
1487729043.66,29059,10.81,72344.5,-12.57,-13.69,-13.69,0,*66
1487729044.92,29060,10.81,72348.5,-12.57,-13.61,-13.69,0,*64
1487729046.19,29061,10.81,72352.0,-12.57,-13.69,-13.61,0,*65
1487729047.43,29062,10.81,72374.0,-12.57,-13.69,-13.69,0,*6E
1487729048.7,29063,10.81,72384.3,-12.57,-13.69,-13.61,0,*67
1487729049.97,29064,10.81,72394.8,-12.57,-13.69,-13.61,0,*60
1487729051.2,29065,10.81,72400.0,-12.57,-13.69,-13.69,0,*69
1487729052.44,29066,10.81,72402.3,-12.57,-13.69,-13.69,0,*6A
1487729053.68,29067,10.81,72406.0,-12.57,-13.69,-13.69,0,*6B
1487729054.94,29068,10.81,72400.8,-12.57,-13.61,-13.69,0,*6C
1487729056.16,29069,10.81,72404.5,-12.59,-13.65,-13.65,0,*6B
1487729057.37,29070,10.81,72396.8,-12.59,-13.65,-13.65,0,*63
1487729058.67,29071,10.81,72396.5,-12.57,-13.61,-13.61,0,*6C
1487729059.88,29072,10.81,72402.0,-12.59,-13.65,-13.73,0,*66
1487729061.1,29073,10.81,72400.5,-12.59,-13.65,-13.65,0,*60
1487729062.32,29074,10.81,72412.0,-12.59,-13.73,-13.65,0,*60
1487729063.54,29075,10.81,72406.0,-12.59,-13.65,-13.65,0,*66
1487729064.75,29076,10.81,72414.3,-12.59,-13.65,-13.65,0,*65
1487729065.97,29077,10.81,72412.5,-12.59,-13.65,-13.65,0,*64
1487729067.19,29078,10.81,72414.5,-12.59,-13.65,-13.65,0,*6B
1487729068.46,29079,10.81,72408.5,-12.57,-13.69,-13.61,0,*6C
1487729069.68,29080,10.81,72412.3,-12.63,-13.73,-13.73,0,*65
1487729070.9,29081,10.81,72410.3,-12.63,-13.65,-13.65,0,*64
1487729072.14,29082,10.81,72404.0,-12.63,-13.61,-13.65,0,*63
1487729073.36,29083,10.81,72414.0,-12.63,-13.73,-13.73,0,*66
1487729074.58,29084,10.81,72414.0,-12.63,-13.73,-13.65,0,*66
1487729075.8,29085,10.81,72412.8,-12.59,-13.65,-13.73,0,*6E
1487729077.02,29086,10.81,72394.5,-12.59,-13.73,-13.73,0,*6A
1487729078.28,29087,10.81,72398.3,-12.65,-13.69,-13.79,0,*65
1487729079.5,29088,10.81,72406.0,-12.63,-13.73,-13.65,0,*6A
1487729080.72,29089,10.81,72402.3,-12.63,-13.73,-13.73,0,*6C
1487729081.94,29090,10.81,72402.8,-12.63,-13.65,-13.73,0,*63
1487729083.17,29091,10.81,72406.3,-12.65,-13.69,-13.69,0,*63
1487729084.39,29092,10.81,72412.0,-12.63,-13.73,-13.73,0,*66
1487729085.61,29093,10.81,72424.0,-12.63,-13.65,-13.73,0,*60
1487729086.87,29094,10.81,72422.0,-12.65,-13.79,-13.69,0,*67
1487729088.09,29095,10.81,72428.0,-12.63,-13.73,-13.73,0,*61
1487729089.35,29096,10.81,72416.3,-12.65,-13.79,-13.69,0,*65
1487729090.59,29097,10.81,72410.5,-12.65,-13.69,-13.69,0,*65
1487729091.81,29098,10.81,72398.0,-12.63,-13.65,-13.65,0,*6C
1487729093.05,29099,10.81,72394.5,-12.65,-13.65,-13.55,0,*68
1487729094.3,29100,10.81,72388.5,-12.63,-13.51,-13.61,0,*6F
1487729095.54,29101,10.81,72400.3,-12.65,-13.65,-13.55,0,*68
1487729096.78,29102,10.81,72394.5,-12.65,-13.69,-13.69,0,*68
1487729098.0,29103,10.81,72394.8,-12.63,-13.73,-13.51,0,*6F
1487729099.26,29104,10.81,72398.3,-12.65,-13.69,-13.79,0,*6F
1487729100.48,29105,10.81,72392.0,-12.63,-13.65,-13.65,0,*69
1487729101.72,29106,10.81,72392.3,-12.65,-13.65,-13.69,0,*60
1487729102.95,29107,10.81,72396.3,-12.65,-13.65,-13.65,0,*6D
1487729104.19,29108,10.81,72384.3,-12.65,-13.65,-13.65,0,*62
1487729105.41,29109,10.81,72380.0,-12.63,-13.65,-13.65,0,*65
1487729106.65,29110,10.81,72380.8,-12.65,-13.69,-13.69,0,*6B
1487729107.88,29111,10.81,72378.5,-12.65,-13.69,-13.69,0,*6A
1487729109.12,29112,10.81,72380.0,-12.67,-13.69,-13.79,0,*6A
1487729110.38,29113,10.81,72384.5,-12.65,-13.69,-13.79,0,*69
1487729111.62,29114,10.81,72386.5,-12.65,-13.69,-13.69,0,*6F
1487729112.84,29115,10.81,72384.3,-12.63,-13.65,-13.65,0,*68
1487729114.1,29116,10.81,72388.8,-12.65,-13.69,-13.79,0,*6C
1487729115.33,29117,10.81,72386.0,-12.65,-13.65,-13.69,0,*60
1487729116.57,29118,10.81,72384.3,-12.65,-13.65,-13.69,0,*6F
1487729117.8,29119,10.81,72384.3,-12.65,-13.69,-13.69,0,*62
1487729119.04,29120,10.81,72388.3,-12.65,-13.69,-13.69,0,*68
1487729120.28,29121,10.81,72378.0,-12.65,-13.69,-13.65,0,*65
1487729121.5,29122,10.81,72392.0,-12.67,-13.65,-13.65,0,*68
1487729122.71,29123,10.81,72392.3,-12.67,-13.65,-13.55,0,*6A
1487729123.93,29124,10.81,72380.5,-12.67,-13.65,-13.55,0,*6D
1487729125.15,29125,10.81,72372.3,-12.67,-13.51,-13.55,0,*6B
1487729126.37,29126,10.81,72382.0,-12.67,-13.47,-13.55,0,*6F
1487729127.62,29127,10.81,72388.5,-12.65,-13.51,-13.55,0,*6B
1487729128.87,29128,10.81,72400.8,-12.65,-13.51,-13.51,0,*60
1487729130.11,29129,10.81,72406.5,-12.65,-13.51,-13.65,0,*66
1487729131.36,29130,10.81,72402.8,-12.65,-13.51,-13.55,0,*6D
1487729132.61,29131,10.81,72410.5,-12.65,-13.51,-13.51,0,*68
1487729133.82,29132,10.81,72378.3,-12.63,-13.47,-13.47,0,*6D
1487729135.04,29133,10.81,72388.0,-12.63,-13.43,-13.47,0,*68
1487729136.25,29134,10.81,72392.5,-12.63,-13.47,-13.47,0,*6B
1487729137.48,29135,10.81,72364.3,-12.65,-13.47,-13.47,0,*6C
1487729138.69,29136,10.81,72352.8,-12.67,-13.47,-13.51,0,*6A
1487729139.9,29137,10.81,72358.0,-12.67,-13.47,-13.47,0,*6C
1487729141.12,29138,10.81,72380.0,-12.63,-13.43,-13.43,0,*67
1487729142.33,29139,10.81,72378.0,-12.63,-13.43,-13.47,0,*62
1487729143.58,29140,10.81,72384.8,-12.65,-13.51,-13.51,0,*6E
1487729144.82,29141,10.81,72402.0,-12.65,-13.51,-13.47,0,*68
1487729146.07,29142,10.81,72410.5,-12.65,-13.51,-13.51,0,*6C
1487729147.3,29143,10.81,72376.0,-12.65,-13.47,-13.47,0,*6D
1487729148.55,29144,10.81,72410.8,-12.65,-13.51,-13.47,0,*6D
1487729149.76,29145,10.81,72396.5,-12.63,-13.43,-13.47,0,*69
1487729151.0,29146,10.81,72422.3,-12.65,-13.47,-13.51,0,*6F
1487729152.23,29147,10.81,72414.5,-12.65,-13.47,-13.47,0,*69
1487729153.45,29148,10.81,72410.3,-12.63,-13.43,-13.43,0,*60
1487729154.72,29149,10.81,72416.0,-12.63,-13.29,-13.33,0,*6A
1487729156.0,29150,10.81,72400.0,-12.63,-13.29,-13.33,0,*62
1487729157.29,29151,10.81,72386.5,-12.65,-13.37,-13.37,0,*6E
1487729158.53,29152,10.81,72366.0,-12.63,-13.33,-13.43,0,*6C
1487729159.8,29153,10.81,72376.5,-12.63,-13.33,-13.29,0,*61
1487729161.07,29154,10.81,72396.3,-12.63,-13.29,-13.29,0,*6D
1487729162.37,29155,10.81,72378.8,-12.65,-13.33,-13.33,0,*6A
1487729163.66,29156,10.81,72356.0,-12.65,-13.37,-13.33,0,*6D
1487729164.88,29157,10.81,72356.0,-12.63,-13.43,-13.43,0,*6E
1487729166.09,29158,10.81,72340.8,-12.63,-13.43,-13.47,0,*65
1487729167.31,29159,10.81,72332.8,-12.63,-13.43,-13.47,0,*64
1487729168.52,29160,10.81,72336.0,-12.63,-13.47,-13.47,0,*6A
1487729169.73,29161,10.81,72308.8,-12.63,-13.43,-13.47,0,*6F
1487729170.95,29162,10.81,72320.5,-12.63,-13.47,-13.43,0,*6C
1487729172.22,29163,10.81,72328.3,-12.63,-13.33,-13.33,0,*69
1487729173.49,29164,10.81,72312.8,-12.63,-13.33,-13.33,0,*6E
1487729174.76,29165,10.81,72340.3,-12.63,-13.33,-13.29,0,*64
1487729176.03,29166,10.81,72342.8,-12.63,-13.33,-13.33,0,*6C
1487729177.31,29167,10.81,72344.3,-12.63,-13.33,-13.33,0,*6D
1487729178.58,29168,10.81,72322.3,-12.63,-13.29,-13.33,0,*69
1487729179.85,29169,10.81,72334.5,-12.63,-13.33,-13.33,0,*63
1487729181.07,29170,10.81,72334.0,-12.63,-13.43,-13.43,0,*6B
1487729182.29,29171,10.81,72320.8,-12.63,-13.43,-13.43,0,*6A
1487729183.53,29172,10.81,72316.0,-12.63,-13.33,-13.43,0,*6E
1487729184.77,29173,10.81,72320.8,-12.63,-13.33,-13.43,0,*6F
1487729185.99,29174,10.81,72320.8,-12.59,-13.43,-13.47,0,*62
1487729187.23,29175,10.81,72336.5,-12.59,-13.43,-13.33,0,*60
1487729188.51,29176,10.81,72324.5,-12.59,-13.33,-13.33,0,*64
1487729189.75,29177,10.81,72332.3,-12.59,-13.43,-13.33,0,*62
1487729191.02,29178,10.81,72352.3,-12.59,-13.33,-13.33,0,*6A
1487729192.29,29179,10.81,72372.8,-12.59,-13.33,-13.33,0,*6B
1487729193.57,29180,10.81,72368.8,-12.59,-13.33,-13.33,0,*6D
1487729194.81,29181,10.81,72346.5,-12.59,-13.33,-13.43,0,*6B
1487729196.08,29182,10.81,72328.8,-12.59,-13.33,-13.29,0,*64
1487729197.37,29183,10.81,72348.0,-12.57,-13.29,-13.29,0,*60
1487729198.61,29184,10.81,72340.0,-12.59,-13.43,-13.33,0,*6E
1487729199.89,29185,10.81,72366.8,-12.59,-13.29,-13.33,0,*63
1487729201.16,29186,10.81,72382.5,-12.59,-13.33,-13.33,0,*6B
1487729202.43,29187,10.81,72394.8,-12.59,-13.33,-13.33,0,*6A
1487729203.7,29188,10.81,72358.3,-12.59,-13.37,-13.29,0,*6A
1487729204.97,29189,10.81,72358.0,-12.59,-13.33,-13.33,0,*64
1487729206.24,29190,10.81,72360.8,-12.59,-13.33,-13.33,0,*6C
1487729207.48,29191,10.81,72358.0,-12.59,-13.29,-13.47,0,*65
1487729208.73,29192,10.81,72402.8,-12.59,-13.43,-13.33,0,*69
1487729210.02,29193,10.81,72386.5,-12.57,-13.37,-13.37,0,*61
1487729211.24,29194,10.81,72404.5,-12.59,-13.43,-13.43,0,*68
1487729212.53,29195,10.81,72420.3,-12.57,-13.37,-13.37,0,*67
1487729213.75,29196,10.81,72378.5,-12.59,-13.43,-13.43,0,*6A
1487729215.04,29197,10.81,72388.0,-12.57,-13.37,-13.37,0,*65
1487729216.25,29198,10.81,72412.8,-12.59,-13.43,-13.47,0,*60
1487729217.54,29199,10.81,72400.0,-12.57,-13.29,-13.37,0,*64
1487729218.81,29200,10.81,72386.8,-12.57,-13.43,-13.37,0,*6B
1487729220.02,29201,10.81,72382.0,-12.59,-13.43,-13.43,0,*67
1487729221.32,29202,10.81,72396.8,-12.57,-13.37,-13.37,0,*6A
1487729222.55,29203,10.81,72436.5,-12.57,-13.43,-13.43,0,*6B
1487729223.76,29204,10.81,72452.0,-12.59,-13.47,-13.47,0,*62
1487729224.98,29205,10.81,72442.3,-12.59,-13.43,-13.43,0,*63
1487729226.22,29206,10.81,72440.5,-12.57,-13.43,-13.43,0,*6E
1487729227.51,29207,10.81,72416.8,-12.57,-13.37,-13.37,0,*6F
1487729228.73,29208,10.81,72400.5,-12.59,-13.43,-13.43,0,*6E
1487729230.02,29209,10.81,72376.5,-12.57,-13.37,-13.37,0,*61
1487729231.28,29210,10.81,72364.3,-12.57,-13.43,-13.37,0,*6A
1487729232.55,29211,10.81,72360.5,-12.57,-13.43,-13.37,0,*6B
1487729233.78,29212,10.81,72368.8,-12.57,-13.43,-13.43,0,*6B
1487729235.02,29213,10.81,72392.5,-12.57,-13.43,-13.43,0,*6A
1487729236.26,29214,10.81,72400.0,-12.57,-13.43,-13.47,0,*69
1487729237.55,29215,10.81,72400.8,-12.57,-13.37,-13.37,0,*6C
1487729238.77,29216,10.81,72402.5,-12.59,-13.43,-13.43,0,*61
1487729239.98,29217,10.81,72394.5,-12.59,-13.43,-13.43,0,*60
1487729241.2,29218,10.81,72386.5,-12.59,-13.43,-13.47,0,*6B
1487729242.49,29219,10.81,72390.5,-12.57,-13.29,-13.37,0,*6F
1487729243.78,29220,10.81,72380.0,-12.57,-13.37,-13.29,0,*65
1487729245.05,29221,10.81,72366.0,-12.57,-13.29,-13.23,0,*61
1487729246.34,29222,10.81,72380.3,-12.57,-13.29,-13.37,0,*67
1487729247.58,29223,10.81,72392.5,-12.59,-13.33,-13.43,0,*60
1487729248.79,29224,10.81,72400.8,-12.59,-13.47,-13.43,0,*64
1487729250.03,29225,10.81,72392.3,-12.57,-13.43,-13.43,0,*6F
1487729251.24,29226,10.81,72404.3,-12.59,-13.43,-13.47,0,*66
1487729252.46,29227,10.81,72404.8,-12.59,-13.47,-13.51,0,*64
1487729253.69,29228,10.81,72426.5,-12.57,-13.47,-13.47,0,*62
1487729254.92,29229,10.81,72402.8,-12.59,-13.51,-13.51,0,*6D
1487729256.15,29230,10.81,72412.8,-12.59,-13.51,-13.51,0,*65
1487729257.38,29231,10.81,72400.3,-12.57,-13.47,-13.47,0,*6A
1487729258.61,29232,10.81,72420.5,-12.59,-13.51,-13.51,0,*67
1487729259.84,29233,10.81,72412.3,-12.57,-13.43,-13.47,0,*6C
1487729261.08,29234,10.81,72392.8,-12.57,-13.43,-13.43,0,*6F
1487729262.29,29235,10.81,72406.3,-12.59,-13.43,-13.47,0,*64
1487729263.56,29236,10.81,72424.0,-12.57,-13.43,-13.37,0,*6E
1487729264.85,29237,10.81,72404.8,-12.57,-13.37,-13.37,0,*6C
1487729266.14,29238,10.81,72364.3,-12.57,-13.37,-13.37,0,*63
1487729267.41,29239,10.81,72378.8,-12.57,-13.37,-13.43,0,*61
1487729268.7,29240,10.81,72358.5,-12.57,-13.37,-13.37,0,*6C
1487729269.94,29241,10.81,72364.3,-12.59,-13.43,-13.37,0,*60
1487729271.16,29242,10.81,72376.3,-12.59,-13.43,-13.43,0,*60
1487729272.39,29243,10.81,72376.5,-12.57,-13.43,-13.43,0,*6F
1487729273.61,29244,10.81,72372.3,-12.59,-13.43,-13.43,0,*66
1487729274.88,29245,10.81,72384.0,-12.59,-13.33,-13.33,0,*67
1487729276.15,29246,10.81,72392.5,-12.57,-13.29,-13.23,0,*60
1487729277.42,29247,10.81,72370.0,-12.59,-13.29,-13.29,0,*65
1487729278.69,29248,10.81,72366.3,-12.57,-13.29,-13.23,0,*6E
1487729279.96,29249,10.81,72360.3,-12.57,-13.23,-13.29,0,*6F
1487729281.25,29250,10.81,72378.8,-12.57,-13.29,-13.29,0,*6D
1487729282.54,29251,10.81,72348.3,-12.57,-13.29,-13.29,0,*6C
1487729283.8,29252,10.81,72346.8,-12.57,-13.15,-13.29,0,*60
1487729285.04,29253,10.81,72352.0,-12.57,-13.23,-13.15,0,*6B
1487729286.28,29254,10.81,72358.0,-12.57,-13.15,-13.23,0,*6C
1487729287.5,29255,10.81,72364.3,-12.55,-13.23,-13.23,0,*6A
1487729288.73,29256,10.81,72384.8,-12.55,-13.23,-13.23,0,*69